Albany International Airport Albany US
ICAO: KALB
IATA: ALB
Category: Medium
Scheduled Services: Yes

Elevation: 285 ft
TransAlt. 18000 ft.

Airport Communications:
APP/DEP:118.05
ATIS:120.45
CLNC DEL:127.5
GND:121.7
ARNG OPS:41
BURLINGTON RDO:122.2
TWR:119.5
UNICOM:122.95

KALB Zoom In..

If you have problems with the map follow the link
https://www.worldairports.se/pages/airport.php?
ICAO=KALB

Runways:

(A) RW 01 length 8500 ft width 150 ft
ILS 109.50 / hdg 11

(B) RW 10 length 7200 ft width 150 ft
---- / hdg 101

(C) RW 19 length 8500 ft width 150 ft
ILS 109.50 / hdg 191

(D) RW 28 length 7200 ft width 150 ft
---- / hdg 281

Location; KALB
Day. 18 / Time. 01.51 Zulu
* Altimeter: 30.01
* Temperature: -03° c. -26.6°f.
* Wind from: 360° Speed 03 kn.
Dewpoint: -14° c.
Visibility: 10 Statute Miles.
Clouds: Overcast 9000 ft.

KALB 180151Z 36003KT 10SM OVC090 M03/M14 A3001 RMK AO2 SLP168 T10331139


Wind From 360°
Speed 03 kn.

 
 
jpsmedia.com for Web Design worldairports.se 2019   terms of use